FW5818 Weather Reports


Display with metric or nautical units.
time (UTC)temp
F
wind
direction
speed
MPH
gust
MPH
rain 1hr
in
rain 24hr
in
rain mn
in
humidity
%
barometer
mb
20260906030054 81 0 0.0 0.0 0.00 0.00 0.00 76 1013.6
20260906024601 82 0 0.0 0.0 0.00 0.00 0.00 75 1013.5
20260906023105 82 0 0.0 0.0 0.00 0.00 0.00 73 1013.4
20260906021606 83 0 0.0 0.0 0.00 0.00 0.00 73 1013.4
20260906020059 84 0 0.0 0.0 0.00 0.00 0.00 71 1013.3
20260906014600 85 0 0.0 0.0 0.00 0.00 0.00 70 1013.1
20260906013051 86 0 0.0 0.0 0.00 0.00 0.00 67 1012.9
20260906011604 87 0 0.0 0.0 0.00 0.00 0.00 65 1012.7
20260906010108 89 0 0.0 0.0 0.00 0.00 0.00 62 1012.5
20260906004603 90 0 0.0 0.0 0.00 0.00 0.00 60 1012.4
20260906003054 92 0 0.0 0.0 0.00 0.00 0.00 56 1012.3
20260906001612 94 0 0.0 0.0 0.00 0.00 0.00 53 1012.3
20260906000059 96 0 0.0 0.0 0.00 0.00 0.00 50 1012.3
20260905234601 98 184 0.0 1.0 0.00 0.00 0.00 49 1012.3
20260905233109 99 0 0.0 2.0 0.00 0.00 0.00 46 1012.2
20260905231602 99 0 0.0 3.0 0.00 0.00 0.00 45 1012.1
20260905230057 100 150 0.0 7.0 0.00 0.00 0.00 44 1012.1
20260905224606 100 128 1.0 7.0 0.00 0.00 0.00 44 1012.0
20260905223057 100 0 1.0 6.0 0.00 0.00 0.00 43 1012.0
20260905221600 100 142 2.0 6.0 0.00 0.00 0.00 43 1012.0
20260905220104 100 162 2.0 8.0 0.00 0.00 0.00 43 1012.1
20260905214553 100 0 0.0 9.0 0.00 0.00 0.00 43 1012.3
20260905213106 100 173 1.0 10.0 0.00 0.00 0.00 42 1012.3
20260905211601 100 0 1.0 6.0 0.00 0.00 0.00 42 1012.3
20260905210109 100 199 2.0 7.0 0.00 0.00 0.00 42 1012.6
20260905204603 100 22 2.0 9.0 0.00 0.00 0.00 42 1012.9
20260905203058 100 200 3.0 7.0 0.00 0.00 0.00 44 1013.0
20260905201608 99 160 1.0 7.0 0.00 0.00 0.00 44 1013.3
20260905200128 99 154 1.0 7.0 0.00 0.00 0.00 45 1013.4
20260905194604 97 34 1.0 3.0 0.00 0.00 0.00 47 1013.6
20260905193103 97 61 1.0 9.0 0.00 0.00 0.00 47 1014.0
20260905191605 97 208 0.0 7.0 0.00 0.00 0.00 49 1014.1
20260905184606 99 76 1.0 6.0 0.00 0.00 0.00 46 1014.6
20260905183109 100 196 1.0 8.0 0.00 0.00 0.00 45 1014.7
20260905181607 99 150 2.0 8.0 0.00 0.00 0.00 45 1015.0
20260905174606 99 217 1.0 9.0 0.00 0.00 0.00 48 1015.2
20260905173056 97 178 1.0 7.0 0.00 0.00 0.00 49 1015.3
20260905171603 97 22 1.0 9.0 0.00 0.00 0.00 49 1015.4
20260905170101 96 244 2.0 6.0 0.00 0.00 0.00 51 1015.6
20260905164600 97 137 1.0 8.0 0.00 0.00 0.00 50 1015.8
20260905163053 95 237 1.0 6.0 0.00 0.00 0.00 52 1015.9
20260905161611 94 218 1.0 6.0 0.00 0.00 0.00 55 1015.9
20260905154602 91 0 3.0 9.0 0.00 0.00 0.00 59 1016.0
20260905153051 90 191 0.0 6.0 0.00 0.00 0.00 64 1016.0
20260905151559 89 63 0.0 5.0 0.00 0.00 0.00 66 1015.9
20260905150100 87 5 3.0 7.0 0.00 0.00 0.00 67 1015.8
20260905144604 85 0 1.0 5.0 0.00 0.00 0.00 70 1015.8
20260905143059 84 62 0.0 3.0 0.00 0.00 0.00 75 1015.8
20260905141553 82 0 0.0 2.0 0.00 0.00 0.00 77 1015.6
20260905140105 80 190 1.0 5.0 0.00 0.00 0.00 81 1015.8
20260905134558 78 0 0.0 2.0 0.00 0.00 0.00 87 1015.7
20260905133054 77 0 0.0 1.0 0.00 0.00 0.00 89 1015.8
20260905131556 75 0 0.0 3.0 0.00 0.00 0.00 91 1015.8
20260905130058 73 0 0.0 1.0 0.00 0.00 0.00 93 1015.8
20260905124558 73 0 0.0 1.0 0.00 0.00 0.00 93 1015.8
20260905123102 72 0 0.0 0.0 0.00 0.00 0.00 92 1015.6
20260905121559 72 0 0.0 0.0 0.00 0.00 0.00 92 1015.6
20260905120100 72 0 0.0 0.0 0.00 0.00 0.00 92 1015.6
20260905114610 72 0 0.0 0.0 0.00 0.00 0.00 91 1015.5
20260905113059 72 0 0.0 0.0 0.00 0.00 0.00 91 1015.3
20260905111608 72 0 0.0 0.0 0.00 0.00 0.00 91 1015.3
20260905104555 73 0 0.0 0.0 0.00 0.00 0.00 90 1015.2
20260905103100 73 0 0.0 0.0 0.00 0.00 0.00 90 1015.1
20260905101559 73 0 0.0 0.0 0.00 0.00 0.00 89 1015.1
20260905100106 73 0 0.0 0.0 0.00 0.00 0.00 90 1015.2
20260905094607 73 0 0.0 0.0 0.00 0.00 0.00 89 1015.2
20260905093052 73 0 0.0 0.0 0.00 0.00 0.00 89 1015.1
20260905091606 74 0 0.0 0.0 0.00 0.00 0.00 88 1015.1
20260905084559 74 0 0.0 0.0 0.00 0.00 0.00 88 1015.0
20260905083056 74 0 0.0 0.0 0.00 0.00 0.00 87 1015.0
20260905081608 74 0 0.0 0.0 0.00 0.00 0.00 87 1014.8
20260905080059 74 0 0.0 0.0 0.00 0.00 0.00 87 1014.8
20260905074559 75 0 0.0 0.0 0.00 0.00 0.00 86 1014.7
20260905073102 75 0 0.0 0.0 0.00 0.00 0.00 86 1014.6
20260905071602 75 0 0.0 0.0 0.00 0.00 0.00 85 1014.7
20260905070057 76 0 0.0 0.0 0.00 0.00 0.00 85 1014.8
20260905064603 76 0 0.0 0.0 0.00 0.00 0.00 84 1014.8
20260905063117 76 0 0.0 0.0 0.00 0.00 0.00 84 1014.8
20260905061612 76 0 0.0 0.0 0.00 0.00 0.00 84 1014.8
20260905054554 76 0 0.0 0.0 0.00 0.00 0.00 83 1015.0
20260905053056 76 0 0.0 0.0 0.00 0.00 0.00 83 1015.0
20260905051557 76 0 0.0 0.0 0.00 0.00 0.00 83 1015.0
20260905044605 77 0 0.0 0.0 0.00 0.00 0.00 82 1014.8
20260905043128 77 0 0.0 0.0 0.00 0.00 0.00 81 1014.9
20260905041600 77 0 0.0 0.0 0.00 0.00 0.00 81 1014.9
20260905040120 78 0 0.0 0.0 0.00 0.00 0.00 81 1015.0
20260905034559 78 0 0.0 0.0 0.00 0.00 0.00 80 1014.9
20260905033100 78 0 0.0 0.0 0.00 0.00 0.00 79 1015.0
20260905031558 79 0 0.0 0.0 0.00 0.00 0.00 78 1014.9